Jackson Hawkins Field, MS

3:09 AM CDT on October 17, 2017 (GMT -0500)
Hawkins

Weather History for KHKS - October, 2012

Change the Weather History Date:

Friday, October 26, 2012

  Actual Average (KJAN) Record (KJAN)
Temperature  
Mean Temperature 58 °F -  
Max Temperature 70 °F 74 °F 92 °F (1927)
Min Temperature 46 °F 47 °F 30 °F (1955)
Degree Days  
Heating Degree Days 8    
Growing Degree Days 8 (Base 50)    
Moisture  
Dew Point 55 °F    
Average Humidity 83    
Maximum Humidity 93    
Minimum Humidity 65    
Precipitation  
Precipitation 0.00 in - - ()
Sea Level Pressure  
Sea Level Pressure 30.02 in    
Wind  
Wind Speed 6 mph (NNW)    
Max Wind Speed 18 mph    
Max Gust Speed 25 mph    
Visibility 9 miles    
Events Rain    
Averages and records for this station are not official NWS values.
T = Trace of Precipitation, MM = Missing Value Source: NWS Daily Summary

Daily Weather History Graph

Daily Weather History Graph

Search for Another Location

Airport or City:

Trip Planner

Search our weather history database for the weather conditions in past years. The results will help you decide how hot, cold, wet, or windy it might be!

Date:

Astronomy

Oct. 26, 2012 Rise Set
Actual Time 7:13 AM CDT 6:15 PM CDT
Civil Twilight 6:48 AM CDT 6:40 PM CDT
Nautical Twilight 6:19 AM CDT 7:09 PM CDT
Astronomical Twilight 5:50 AM CDT 7:38 PM CDT
Moon 4:24 PM CDT (10/26) 4:18 AM CDT (10/26)
Length of Visible Light 11h 52m
Length of Day
11h 02m
Waxing Gibbous, 91% of the Moon is Illuminated
Oct 26
Waxing Gibbous
Oct 29
Full
Nov 6
Last Quarter
Nov 13
New
Nov 20
First Quarter

Hourly Weather History & Observations

Time (CDT) Temp. Dew Point Humidity Pressure Visibility Wind Dir Wind Speed Gust Speed Precip Events Conditions
12:53 AM 66.0 °F 60.1 °F 81% 29.94 in 10.0 mi SSE 3.5 mph - N/A   Clear
1:53 AM 64.0 °F 60.1 °F 87% 29.95 in 10.0 mi Calm Calm - N/A   Clear
2:53 AM 63.0 °F 60.1 °F 90% 29.95 in 10.0 mi Calm Calm - N/A   Clear
3:53 AM 62.1 °F 60.1 °F 93% 29.94 in 8.0 mi Calm Calm - N/A   Clear
4:53 AM 61.0 °F 59.0 °F 93% 29.94 in 7.0 mi Calm Calm - N/A   Clear
5:53 AM 61.0 °F 59.0 °F 93% 29.96 in 5.0 mi Calm Calm - N/A   Clear
6:53 AM 61.0 °F 59.0 °F 93% 29.99 in 7.0 mi NW 10.4 mph - N/A   Mostly Cloudy
8:41 AM 64.4 °F 60.8 °F 88% 30.03 in 9.0 mi North 11.5 mph - N/A   Scattered Clouds
8:50 AM 64.4 °F 60.8 °F 88% 30.03 in 7.0 mi NNW 5.8 mph - N/A   Mostly Cloudy
8:53 AM 63.0 °F 61.0 °F 93% 30.02 in 7.0 mi North 8.1 mph - N/A   Mostly Cloudy
10:53 AM 63.0 °F 57.9 °F 84% 30.04 in 10.0 mi North 6.9 mph - N/A   Overcast
11:24 AM 64.4 °F 57.2 °F 77% 30.06 in 10.0 mi NW 8.1 mph - N/A   Scattered Clouds
11:53 AM 69.1 °F 57.9 °F 68% 30.03 in 10.0 mi NNW 8.1 mph - N/A   Scattered Clouds
12:53 PM 69.1 °F 57.0 °F 65% 30.04 in 10.0 mi NW 10.4 mph 17.3 mph N/A   Overcast
1:53 PM 66.9 °F 55.9 °F 68% 30.02 in 10.0 mi NW 8.1 mph - N/A   Mostly Cloudy
2:53 PM 63.0 °F 54.0 °F 72% 30.01 in 10.0 mi NW 9.2 mph - N/A   Clear
3:53 PM 63.0 °F 54.0 °F 72% 30.00 in 10.0 mi NW 12.7 mph - N/A   Partly Cloudy
4:12 PM 60.8 °F 51.8 °F 72% 30.04 in 10.0 mi NW 18.4 mph 25.3 mph 0.00 in Rain Light Rain
4:44 PM 55.4 °F 50.0 °F 82% 30.05 in 10.0 mi NNW 12.7 mph 23.0 mph 0.00 in   Overcast
4:53 PM 55.9 °F 50.0 °F 80% 30.03 in 10.0 mi NNW 11.5 mph 21.9 mph 0.00 in   Overcast
5:11 PM 55.4 °F 50.0 °F 82% 30.05 in 10.0 mi NNW 11.5 mph 18.4 mph N/A   Overcast
5:53 PM 54.0 °F 48.9 °F 83% 30.05 in 10.0 mi NNW 8.1 mph - N/A   Overcast
6:53 PM 52.0 °F 48.0 °F 86% 30.07 in 10.0 mi NNW 9.2 mph 16.1 mph N/A   Overcast
7:53 PM 50.0 °F 46.0 °F 86% 30.09 in 10.0 mi NNW 10.4 mph 18.4 mph N/A   Overcast
8:53 PM 48.0 °F 45.0 °F 89% 30.10 in 10.0 mi NW 8.1 mph 17.3 mph N/A   Overcast
9:53 PM 46.9 °F 44.1 °F 90% 30.12 in 10.0 mi NNW 9.2 mph - N/A   Overcast
11:53 PM 46.9 °F 44.1 °F 90% 30.12 in 6.0 mi NNW 9.2 mph 16.1 mph N/A   Overcast